Powrót do katalogu

COSMOS 1249 COOLANT

AktywnyLEO
NORAD 26508·DEBRIS·🇷🇺 Russia

Wystrzelony Mar 5, 1981 z Baikonur Cosmodrome

Loading…

Następne Przeloty (najbliższe 24 godziny)

TLE

Starzejące sięSource: Space-Track

Epoka: Sep 11, 2026, 03:28 UTC

1 26508U 81021K   26254.14468840  .00000050  00000-0  10851-3 0  9990
2 26508  64.9649  75.7547 0056847 220.8092 253.9083 13.92279453670636

Śledź COSMOS 1249 COOLANT w czasie rzeczywistym z AllMySat

Download on the App Store